Winnipeg, Manitoba

4:01 PM CDT on October 18, 2017 (GMT -0500)
Winnipeg International Airport

Weather History for CYWG - November, 2012

Change the Weather History Date:

Sunday, November 25, 2012

  Actual Average Record
Temperature  
Mean Temperature 8 °F -  
Max Temperature 20 °F 17 °F 39 °F (1997)
Min Temperature -5 °F 0 °F -18 °F (1996)
Degree Days  
Heating Degree Days 58    
Moisture  
Dew Point 6 °F    
Average Humidity 85    
Maximum Humidity 100    
Minimum Humidity 61    
Precipitation  
Precipitation 0.02 in 0.02 in - ()
Sea Level Pressure  
Sea Level Pressure 30.09 in    
Wind  
Wind Speed 8 mph ()    
Max Wind Speed 20 mph    
Max Gust Speed 26 mph    
Visibility 11.4 miles    
Events Snow    
Averages and records for this station are not official NWS values.
T = Trace of Precipitation, MM = Missing Value Source: Averaged Metar Reports

Daily Weather History Graph

Daily Weather History Graph

Search for Another Location

Airport or City:

Trip Planner

Search our weather history database for the weather conditions in past years. The results will help you decide how hot, cold, wet, or windy it might be!

Date:

Astronomy

Nov. 25, 2012 Rise Set
Actual Time 7:57 AM CST 4:34 PM CST
Civil Twilight 7:20 AM CST 5:10 PM CST
Nautical Twilight 6:40 AM CST 5:51 PM CST
Astronomical Twilight 6:02 AM CST 6:29 PM CST
Moon 3:01 PM CST (11/25) 5:01 AM CST (11/25)
Length of Visible Light 9h 49m
Length of Day
8h 36m
Waxing Gibbous, 93% of the Moon is Illuminated
Nov 25
Waxing Gibbous
Nov 28
Full
Dec 6
Last Quarter
Dec 13
New
Dec 19
First Quarter

Hourly Weather History & Observations

Time (CST) Temp. Windchill Dew Point Humidity Pressure Visibility Wind Dir Wind Speed Gust Speed Precip Events Conditions
12:00 AM 16 °F - 13 °F 83% 29.92 in 9 mi Calm Calm - -   Overcast
12:00 AM 15.8 °F 10.2 °F 14.0 °F 93% 29.92 in 15.0 mi WNW 3.5 mph - N/A Snow Light Snow
1:00 AM 17.6 °F 12.3 °F 15.8 °F 93% 29.93 in 15.0 mi West 3.5 mph - N/A Snow Light Snow
2:00 AM 19.4 °F 12.8 °F 15.8 °F 86% 29.91 in 15.0 mi West 4.6 mph - N/A Snow Light Snow
3:00 AM 19.4 °F 14.3 °F 17.6 °F 93% 29.92 in 6.0 mi SSW 3.5 mph - N/A Snow Light Snow
3:31 AM 19.4 °F 14.3 °F - N/A% - 2.0 mi WSW 3.5 mph - N/A Snow Light Snow
3:45 AM 19.4 °F 12.8 °F - N/A% - 1.0 mi WSW 4.6 mph - N/A Snow Light Snow
4:00 AM 21.2 °F 12.6 °F 19.4 °F 93% 29.91 in 1.0 mi West 6.9 mph - N/A Snow Light Snow
4:47 AM 19.4 °F 9.5 °F - N/A% - 2.0 mi West 8.1 mph - N/A Snow Light Snow
5:00 AM 19.4 °F 9.5 °F 17.6 °F 93% 29.91 in 2.0 mi West 8.1 mph - N/A Snow Light Snow
5:35 AM 19.4 °F 8.6 °F - N/A% - 10.0 mi West 9.2 mph - N/A Snow Light Snow
6:00 AM 19 °F - 18 °F 92% 29.92 in 9 mi Calm Calm - -   Overcast
6:00 AM 19.4 °F 7.2 °F 17.6 °F 93% 29.92 in 10.0 mi West 11.5 mph - N/A Snow Light Snow
6:37 AM 19.4 °F 4.5 °F - N/A% - 10.0 mi NNW 17.3 mph - N/A Snow Light Snow
7:00 AM 17.6 °F 2.2 °F 12.2 °F 79% 29.96 in 10.0 mi North 17.3 mph 24.2 mph N/A Snow Light Snow
7:29 AM 15.8 °F 0.3 °F - N/A% - 10.0 mi NNW 16.1 mph 23.0 mph N/A Snow Light Snow
7:40 AM 15.8 °F 1.4 °F - N/A% - 15.0 mi NNW 13.8 mph - N/A Snow Low Drifting Snow
8:00 AM 15.8 °F -0.6 °F 8.6 °F 73% 29.98 in 15.0 mi NNW 18.4 mph - N/A Snow Low Drifting Snow
9:00 AM 14.0 °F -1.4 °F 8.6 °F 79% 30.01 in 15.0 mi NNW 15.0 mph - N/A   Mostly Cloudy
10:00 AM 12.2 °F -3.7 °F 6.8 °F 79% 30.05 in 15.0 mi NW 15.0 mph - N/A   Mostly Cloudy
10:49 AM 14.0 °F -3.0 °F - N/A% - 10.0 mi NNW 18.4 mph 25.3 mph N/A Snow Light Snow Showers
11:00 AM 14.0 °F -0.8 °F 8.6 °F 79% 30.08 in 15.0 mi NNW 13.8 mph 23.0 mph N/A Snow Light Snow Showers
12:00 PM 11 °F - 4 °F 61% 30.10 in 9 mi Calm Calm - -  
12:00 PM 10.4 °F -8.2 °F 3.2 °F 73% 30.10 in 15.0 mi NW 19.6 mph 26.5 mph N/A Snow Low Drifting Snow
1:00 PM 10.4 °F -6.6 °F 3.2 °F 73% 30.12 in 15.0 mi NNW 16.1 mph - N/A Snow Low Drifting Snow
2:00 PM 8.6 °F -9.5 °F 1.4 °F 73% 30.14 in 15.0 mi NNW 17.3 mph - N/A   Clear
3:00 PM 8.6 °F -8.9 °F 1.4 °F 73% 30.16 in 15.0 mi NNW 16.1 mph - N/A Snow Low Drifting Snow
4:00 PM 5.0 °F -10.8 °F -0.4 °F 78% 30.19 in 15.0 mi NW 11.5 mph - N/A   Partly Cloudy
5:00 PM 1.4 °F -14.5 °F -2.2 °F 85% 30.21 in 15.0 mi NW 10.4 mph - N/A   Partly Cloudy
6:00 PM -1 °F - -5 °F 77% 30.25 in 9 mi Calm Calm - -  
6:00 PM -2.2 °F -18.0 °F -4.0 °F 92% 30.25 in 15.0 mi WNW 9.2 mph - N/A   Clear
7:00 PM -4.0 °F -19.0 °F -5.8 °F 92% 30.27 in 15.0 mi NW 8.1 mph - N/A   Partly Cloudy
8:00 PM -5.8 °F -18.4 °F -5.8 °F 100% 30.30 in 15.0 mi NW 5.8 mph - N/A   Scattered Clouds
9:00 PM -4.0 °F -17.8 °F -4.0 °F 100% 30.31 in 15.0 mi NW 6.9 mph - N/A   Scattered Clouds
10:00 PM -2.2 °F -12.5 °F -4.0 °F 92% 30.34 in 15.0 mi NW 4.6 mph - N/A   Scattered Clouds
11:00 PM -5.8 °F -19.9 °F -7.6 °F 92% 30.36 in 15.0 mi NW 6.9 mph - N/A   Partly Cloudy